Location: Palmerston North
(40.3500°S, 175.6170°E)
Time: 22:37:55
(UTC+13:00)

Aureole 3 Rocket - Pass Details

Date: 24 January 2019
Orbit: 399 x 1740 km, 82.5° (Epoch: 15 October)

Event Time Altitude Azimuth Distance (km) Brightness Sun altitude
Rises 21:42:26 0° 189° (S) 2,457 6.9 -10.4°
Reaches altitude 10° 21:44:18 10° 189° (S) 1,653 6.0 -10.7°
Maximum altitude 21:47:49 84° 275° (W) 561 2.9 -11.2°
Drops below altitude 10° 21:52:22 10° 4° (N) 2,126 5.4 -11.9°
Enters shadow 21:53:28 - 5° (N) 2,594 5.8 -12.1°
